Terug naar catalogus

ATLAS 5 CENTAUR DEB

LostHEO
NORAD 57593·DEBRIS·🇺🇸 United States

Gelanceerd Oct 17, 2018 vanaf Cape Canaveral Space Force Station

Loading…

Volgende Passages (komende 24 uur)

TLE

VerouderdSource: Space-Track

Epoch: Sep 25, 2023, 07:19 UTC

1 57593U 18079HU  23268.30550119 -.00000111  00000-0  00000+0 0  9992
2 57593  12.3999  70.0890 4751337 258.3305  46.5556  2.05840430  5804

Volg ATLAS 5 CENTAUR DEB in realtime met AllMySat

Download on the App Store